Flag for Germany Weather past 2 weeks in Mayen, Rhineland-Palatinate, Germany

Now
43 °F

Quite cool.


Feels Like: 36 °F
Forecast: 35 / 43 °F
Wind: 14 mph from Southwest

Location: Buechel

Current Time: Mar 2, 2015 at 12:33:45 AM

Latest Report: Mar 1, 2015 at 11:20 PM


Visibility: N/A

Pressure: 29.56 "Hg

Humidity: 87%

Dew point: 39 °F

Location of MayenLocation

Historic Weather in Mayen — Graph

°F

Mayen temperature yesterday

Maximum temperature yesterday: 46 °F (at 1:20 PM)
Minimum temperature yesterday: 32 °F (at 4:20 AM)
Average temperature yesterday: 40 °F

Past Weeks' High & Low Weather Summary

 TemperatureHumidityPressure
High46 °F (Mar 1, 1:20 PM)100% (Feb 15, 8:20 AM)30.69 "Hg (Feb 15, 8:20 AM)
Low27 °F (Feb 19, 1:20 AM)56% (Feb 22, 1:20 PM)29.39 "Hg (Feb 21, 4:20 AM)
Average34 °F90%29.96 "Hg
* Reported Feb 14 11:20 PM — Mar 1 11:20 PM, Mayen, Weather by CustomWeather, © 2015

Note: Actual official high and low records may vary slightly from our data, if they occured in-between our weather recording intervals... More about our weather records

Advertising

Mayen weather history for previous 24 hours

 ConditionsComfort  
Time TempWeatherWind HumidityBarometerVisibility
11:20 PM
Sun, Mar 1
43 °FQuite cool.14 mph87%29.56 "HgN/A
10:20 PM43 °FQuite cool.15 mph87%29.59 "HgN/A
9:20 PM43 °FQuite cool.13 mph81%29.62 "HgN/A
8:20 PM43 °FQuite cool.13 mph76%29.65 "HgN/A
7:20 PM43 °FQuite cool.13 mph71%29.65 "HgN/A
6:20 PM45 °FQuite cool.10 mph66%29.65 "HgN/A
5:20 PM46 °FCool.13 mph57%29.65 "HgN/A
4:20 PM46 °FCool.13 mph66%29.65 "HgN/A
3:20 PM46 °FCool.13 mph71%29.65 "HgN/A
2:20 PM46 °FCool.13 mph66%29.68 "HgN/A
1:20 PM46 °FCool.17 mph66%29.65 "HgN/A
12:20 PM45 °FQuite cool.16 mph87%29.68 "HgN/A
11:20 AM41 °FQuite cool.13 mph100%29.68 "Hg1 mi
10:20 AM39 °FChilly.13 mph100%29.65 "Hg1 mi
9:20 AM37 °FChilly.13 mph100%29.65 "Hg0 mi
8:20 AM36 °FChilly.14 mph100%29.65 "Hg0 mi
7:20 AM36 °FChilly.20 mph100%29.65 "Hg1 mi
6:20 AM34 °FChilly.15 mph100%29.65 "Hg1 mi
5:20 AM34 °FChilly.18 mph93%29.65 "Hg1 mi
4:20 AM32 °FChilly.18 mph100%29.68 "Hg1 mi
3:20 AM34 °FChilly.16 mph81%29.71 "Hg3 mi
2:20 AM34 °FChilly.15 mph75%29.77 "HgN/A
1:20 AM36 °FChilly.16 mph65%29.77 "HgN/A
12:20 AM34 °FChilly.15 mph70%29.80 "HgN/A
Weather by CustomWeather, © 2015

See weather overviewHow to use our weather pages